This demonstration page uses our WeatherBlox Daily Observations layout. Learn more.

Left ArrowRight Arrow

39.01783, -85.05884

Hourly Observations for November 19, 2018

Temp ( °F °C ) Dew Point ( °F °C ) Humidity (%) Winds ( mph kmh ) Pressure ( in mb ) Visibility ( mi km ) Precip ( " mm )
12:52 am 00:52 Cloudy with Haze 42 5.6 37 2.8 82 82 ENE 6 9 30.11 1020 5 8 0.00 0.00
1:52 am 01:52 Cloudy with Haze 42 5.6 37 2.8 82 82 NE 6 9 30.10 1019 5 8 0.00 0.00
2:22 am 02:22 Cloudy with Mist and Fog 42 5.6 38 3.3 85 85 NE 5 7 30.12 1020 5 8 0.00 0.03
2:52 am 02:52 Cloudy with Haze 42 5.6 37 2.8 82 82 NE 5 7 30.10 1019 5 8 0.00 0.03
3:52 am 03:52 Cloudy with Light Rain 41 5 39 3.9 93 93 NNE 6 9 30.09 1019 4 6 0.01 0.25
4:52 am 04:52 Cloudy with Mist and Fog 41 5 39 3.9 93 93 ENE 7 11 30.07 1018 4 6 0.00 0.03
5:14 am 05:14 Cloudy with Mist and Fog 41 5 39 3.9 93 93 ENE 7 11 30.09 1019 3 5 0.00 0.00
5:46 am 05:46 Cloudy with Light Rain 41 5 39 4 93 93 N 8 13 30.09 1019 3 4 0.01 0.25
5:52 am 05:52 Cloudy with Light Rain 41 5 39 3.9 93 93 N 8 13 30.07 1018 3 4 0.01 0.25
6:52 am 06:52 Cloudy with Rain 40 4.4 40 4.4 100 100 ENE 8 13 30.06 1018 2 3 0.04 1.02
7:13 am 07:13 Cloudy with Mist and Fog 40 4.4 40 4.4 100 100 ENE 7 11 30.09 1019 3 5 0.01 0.25
7:33 am 07:33 Cloudy with Light Rain 40 4.4 40 4.4 100 100 NE 8 13 30.09 1019 2 3 0.02 0.51
7:52 am 07:52 Cloudy with Rain 40 4.4 40 4.4 100 100 NE 5 7 30.05 1018 2 3 0.04 1.02
8:52 am 08:52 Cloudy with Light Rain 41 5 41 5 100 100 ENE 8 13 30.04 1017 2 3 0.08 2.03
9:52 am 09:52 Cloudy with Light Rain 42 5.6 41 5 96 96 E 6 9 30.03 1017 2 3 0.04 1.02
10:52 am 10:52 Cloudy with Mist and Fog 43 6.1 42 5.6 97 97 ENE 3 6 30.03 1017 2 3 0.01 0.25
11:52 am 11:52 Cloudy with Mist and Fog 43 6.1 42 5.6 97 97 N 3 6 30.01 1016 2 3 0.00 0.00
12:52 pm 12:52 Cloudy with Mist and Fog 43 6.1 43 6.1 100 100 NNW 3 6 29.99 1016 2 3 0.00 0.00
1:21 pm 13:21 Cloudy with Mist and Fog 43 6.1 43 6.1 100 100 NW 6 9 30.00 1016 1 1 0.00 0.00
1:52 pm 13:52 Cloudy with Drizzle 42 5.6 42 5.6 100 100 NW 8 13 29.98 1015 0 0 0.00 0.03
2:18 pm 14:18 Cloudy with Drizzle 42 5.6 42 5.6 100 100 WNW 5 7 30.00 1016 5 8 0.00 0.03
2:52 pm 14:52 Cloudy with Drizzle 42 5.6 42 5.6 100 100 WNW 6 9 29.98 1015 5 8 0.00 0.03
3:27 pm 15:27 Cloudy with Drizzle 42 5.6 42 5.6 100 100 WNW 8 13 30.03 1017 1 1 0.00 0.03
3:38 pm 15:38 Cloudy with Drizzle 41 5 41 5 100 100 WNW 8 13 30.03 1017 1 2 0.00 0.03
3:52 pm 15:52 Cloudy with Mist and Fog 42 5.6 42 5.6 100 100 WNW 10 17 29.99 1016 1 2 0.00 0.03
4:52 pm 16:52 Cloudy with Mist and Fog 42 5.6 42 5.6 100 100 WNW 7 11 30.00 1016 1 2 0.00 0.00
5:20 pm 17:20 Cloudy with Mist and Fog 42 5.6 42 5.6 100 100 WNW 12 19 30.03 1017 1 2 0.00 0.00
5:44 pm 17:44 Cloudy with Mist and Fog 41 5 41 5 100 100 WNW 9 15 30.03 1017 5 8 0.00 0.00
5:52 pm 17:52 Cloudy with Light Rain 41 5 41 5 100 100 WNW 9 15 30.02 1017 5 8 0.00 0.03
6:52 pm 18:52 Cloudy with Mist and Fog 41 5 41 5 100 100 WNW 8 13 30.04 1017 6 10 0.00 0.03
7:52 pm 19:52 Cloudy with Mist and Fog 41 5 40 4.4 96 96 WNW 9 15 30.05 1018 4 6 0.00 0.03
8:14 pm 20:14 Cloudy with Mist and Fog 41 5 40 4.4 96 96 WNW 8 13 30.06 1018 5 8 0.00 0.00
8:52 pm 20:52 Cloudy with Mist and Fog 41 5 39 3.9 93 93 WNW 10 17 30.05 1018 6 10 0.00 0.00
9:52 pm 21:52 Cloudy with Mist and Fog 40 4.4 39 3.9 97 97 WNW 7 11 30.05 1018 6 10 0.00 0.00
10:52 pm 22:52 Cloudy with Mist and Fog 40 4.4 39 3.9 97 97 WNW 8 13 30.05 1018 6 10 0.00 0.00
11:17 pm 23:17 Cloudy with Mist and Fog 40 4.4 39 3.9 97 97 WNW 8 13 30.09 1019 6 10 0.00 0.00
11:52 pm 23:52 Cloudy 40 4.4 38 3.3 93 93 W 9 15 30.06 1018 7 11 0.00 0.00

Powered by AerisWeather